TimeEST,TemperatureF,Dew PointF,Humidity,Sea Level PressureIn,VisibilityMPH,Wind Direction,Wind SpeedMPH,Gust SpeedMPH,PrecipitationIn,Events,Conditions,WindDirDegrees,DateUTC
12:53 AM,48.0,32.0,54,29.72,10.0,NW,16.1,23.0,N/A,,Clear,310,2012-01-02 05:53:00
1:53 AM,46.0,30.0,54,29.73,10.0,NW,5.8,-,N/A,,Clear,310,2012-01-02 06:53:00
2:53 AM,44.1,28.0,53,29.73,10.0,WNW,11.5,20.7,N/A,,Clear,300,2012-01-02 07:53:00
3:53 AM,43.0,26.1,51,29.73,10.0,NW,10.4,20.7,N/A,,Partly Cloudy,320,2012-01-02 08:53:00
4:53 AM,41.0,24.1,51,29.73,10.0,NW,11.5,17.3,N/A,,Scattered Clouds,310,2012-01-02 09:53:00
5:53 AM,39.0,14.0,36,29.76,10.0,WNW,16.1,24.2,N/A,,Partly Cloudy,300,2012-01-02 10:53:00
6:53 AM,37.9,15.1,39,29.78,10.0,WNW,10.4,21.9,N/A,,Clear,290,2012-01-02 11:53:00
7:53 AM,37.0,15.1,41,29.80,10.0,NW,12.7,28.8,N/A,,Clear,310,2012-01-02 12:53:00
8:53 AM,37.9,17.1,43,29.81,10.0,WNW,9.2,-,N/A,,Clear,290,2012-01-02 13:53:00
9:53 AM,39.0,16.0,39,29.82,10.0,WNW,12.7,23.0,N/A,,Clear,300,2012-01-02 14:53:00
10:53 AM,41.0,17.6,39,29.81,10.0,WNW,18.4,29.9,N/A,,Scattered Clouds,300,2012-01-02 15:53:00
11:53 AM,39.9,16.0,38,29.77,10.0,NW,12.7,24.2,N/A,,Clear,310,2012-01-02 16:53:00
12:53 PM,43.0,17.1,35,29.76,10.0,WNW,13.8,21.9,N/A,,Overcast,300,2012-01-02 17:53:00
1:53 PM,39.2,15.8,39,29.77,10.0,NW,12.7,20.7,N/A,,Overcast,310,2012-01-02 18:53:00
2:53 PM,39.2,15.8,39,29.76,10.0,WNW,11.5,20.7,N/A,,Mostly Cloudy,300,2012-01-02 19:53:00
3:53 PM,39.9,17.1,40,29.77,10.0,WNW,13.8,19.6,N/A,,Partly Cloudy,290,2012-01-02 20:53:00
4:53 PM,37.9,17.1,43,29.80,10.0,WNW,12.7,19.6,N/A,,Mostly Cloudy,290,2012-01-02 21:53:00
5:53 PM,37.0,18.0,46,29.82,10.0,WNW,11.5,17.3,N/A,,Partly Cloudy,290,2012-01-02 22:53:00
6:53 PM,35.6,17.6,48,29.85,10.0,West,6.9,-,N/A,,Clear,280,2012-01-02 23:53:00
7:53 PM,35.1,19.0,52,29.84,10.0,WNW,8.1,-,N/A,,Clear,290,2012-01-03 00:53:00
8:53 PM,33.1,19.0,56,29.84,10.0,West,4.6,-,N/A,,Clear,280,2012-01-03 01:53:00
9:53 PM,33.1,18.0,54,29.83,10.0,West,3.5,-,N/A,,Clear,280,2012-01-03 02:53:00
10:53 PM,33.1,19.0,56,29.83,10.0,West,5.8,-,N/A,,Clear,280,2012-01-03 03:53:00
11:53 PM,33.1,19.0,56,29.83,10.0,WNW,5.8,-,N/A,,Clear,290,2012-01-03 04:53:00